When you browse on this site, cookies collect data to enhance your experience and personalize the content and advertising you see.
Visit our Privacy Policy to learn more. By continuing to use the site, you agree to this use of cookies and data.
  • In Hungary
  • List of Countries
  • For 7 days
  • Water Temperature
  • Weather Map
  • News
  • Weather Widgets
  • user-avatar
    Login

    Hourly Weather Cascavel

    Today, 12 November, Tuesday

    Time Temperature Precipitation Wind Pressure Humidity
    00:00 +27°C° 0 mm 4 mps 753 mmHg 81%
    01:00 +27°C° 0 mm 5 mps 753 mmHg 82%
    02:00 +27°C° 0 mm 5 mps 753 mmHg 83%
    03:00 +26°C° 0 mm 5 mps 753 mmHg 83%
    04:00 +27°C° 0 mm 5 mps 753 mmHg 81%
    05:00 +27°C° 0 mm 5 mps 754 mmHg 79%
    06:00 +27°C° 0 mm 6 mps 754 mmHg 76%
    07:00 +28°C° 0 mm 6 mps 755 mmHg 71%
    08:00 +29°C° 0 mm 5 mps 755 mmHg 65%
    09:00 +30°C° 0 mm 5 mps 755 mmHg 59%
    10:00 +33°C° 0 mm 6 mps 755 mmHg 54%
    11:00 +34°C° 0 mm 6 mps 754 mmHg 50%
    12:00 +35°C° 0 mm 6 mps 754 mmHg 45%
    13:00 +35°C° 0 mm 6 mps 753 mmHg 48%
    14:00 +34°C° 0 mm 6 mps 752 mmHg 51%
    15:00 +33°C° 0 mm 6 mps 751 mmHg 54%
    16:00 +32°C° 0 mm 6 mps 751 mmHg 62%
    17:00 +29°C° 0 mm 6 mps 752 mmHg 69%
    18:00 +28°C° 0 mm 5 mps 752 mmHg 76%
    19:00 +28°C° 0 mm 5 mps 753 mmHg 78%
    20:00 +28°C° 0 mm 5 mps 753 mmHg 79%
    21:00 +27°C° 0 mm 5 mps 754 mmHg 80%
    22:00 +27°C° 0 mm 5 mps 754 mmHg 80%
    23:00 +27°C° 0 mm 5 mps 754 mmHg 79%

    Tomorrow, 13 November, Wednesday

    Time Temperature Precipitation Wind Pressure Humidity
    00:00 +27°C° 0 mm 6 mps 754 mmHg 79%
    01:00 +27°C° 0 mm 5 mps 753 mmHg 80%
    02:00 +26°C° 0 mm 5 mps 753 mmHg 81%
    03:00 +26°C° 0 mm 5 mps 753 mmHg 81%
    04:00 +26°C° 0 mm 5 mps 754 mmHg 80%
    05:00 +26°C° 0 mm 5 mps 754 mmHg 78%
    06:00 +26°C° 0 mm 5 mps 755 mmHg 77%
    07:00 +27°C° 0 mm 5 mps 755 mmHg 70%
    08:00 +29°C° 0 mm 5 mps 755 mmHg 62%
    09:00 +32°C° 0 mm 5 mps 756 mmHg 55%
    10:00 +33°C° 0 mm 6 mps 755 mmHg 52%
    11:00 +34°C° 0 mm 6 mps 755 mmHg 49%
    12:00 +35°C° 0 mm 6 mps 754 mmHg 45%
    13:00 +34°C° 0 mm 6 mps 754 mmHg 48%
    14:00 +34°C° 0 mm 6 mps 753 mmHg 51%
    15:00 +33°C° 0 mm 6 mps 752 mmHg 54%
    16:00 +30°C° 0 mm 5 mps 752 mmHg 62%
    17:00 +29°C° 0 mm 5 mps 753 mmHg 70%
    18:00 +27°C° 0 mm 5 mps 753 mmHg 78%
    19:00 +27°C° 0 mm 5 mps 753 mmHg 80%
    20:00 +27°C° 0 mm 5 mps 754 mmHg 81%
    21:00 +27°C° 0 mm 5 mps 754 mmHg 83%
    22:00 +27°C° 0 mm 5 mps 754 mmHg 83%
    23:00 +27°C° 0 mm 5 mps 754 mmHg 83%

    Day after tomorrow, 14 November, Thursday

    Time Temperature Precipitation Wind Pressure Humidity
    00:00 +27°C° 0 mm 5 mps 754 mmHg 83%
    01:00 +27°C° 0.1 mm 5 mps 754 mmHg 83%
    02:00 +27°C° 0.1 mm 5 mps 754 mmHg 83%
    03:00 +27°C° 0.1 mm 5 mps 754 mmHg 83%
    04:00 +27°C° 0.1 mm 5 mps 754 mmHg 83%
    05:00 +26°C° 0.1 mm 5 mps 754 mmHg 82%
    06:00 +26°C° 0.1 mm 4 mps 755 mmHg 82%
    07:00 +28°C° 0.1 mm 5 mps 755 mmHg 74%
    08:00 +29°C° 0.1 mm 5 mps 756 mmHg 67%
    09:00 +32°C° 0.1 mm 5 mps 756 mmHg 59%
    10:00 +33°C° 0 mm 6 mps 755 mmHg 56%
    11:00 +34°C° 0 mm 6 mps 755 mmHg 53%
    12:00 +35°C° 0 mm 6 mps 754 mmHg 49%
    13:00 +34°C° 0 mm 6 mps 753 mmHg 51%
    14:00 +34°C° 0 mm 6 mps 753 mmHg 53%
    15:00 +33°C° 0 mm 6 mps 752 mmHg 55%
    16:00 +32°C° 0 mm 5 mps 753 mmHg 63%
    17:00 +29°C° 0 mm 5 mps 753 mmHg 71%
    18:00 +27°C° 0 mm 4 mps 753 mmHg 79%
    19:00 +27°C° 0 mm 4 mps 753 mmHg 81%
    20:00 +27°C° 0 mm 5 mps 754 mmHg 83%
    21:00 +27°C° 0 mm 5 mps 755 mmHg 85%
    22:00 +27°C° 0 mm 5 mps 754 mmHg 83%
    23:00 +28°C° 0 mm 5 mps 754 mmHg 81%

    15 November, Friday

    Time Temperature Precipitation Wind Pressure Humidity
    00:00 +28°C° 0 mm 5 mps 754 mmHg 79%
    01:00 +28°C° 0 mm 5 mps 754 mmHg 78%
    02:00 +28°C° 0 mm 5 mps 753 mmHg 78%
    03:00 +28°C° 0 mm 5 mps 753 mmHg 77%
    04:00 +28°C° 0.1 mm 5 mps 753 mmHg 77%
    05:00 +27°C° 0.1 mm 5 mps 754 mmHg 77%
    06:00 +27°C° 0.1 mm 4 mps 754 mmHg 76%
    07:00 +29°C° 0.1 mm 5 mps 754 mmHg 71%
    08:00 +30°C° 0.1 mm 5 mps 755 mmHg 65%
    09:00 +32°C° 0.1 mm 5 mps 755 mmHg 60%
    10:00 +33°C° 0 mm 5 mps 755 mmHg 57%
    11:00 +33°C° 0 mm 5 mps 754 mmHg 54%
    12:00 +34°C° 0 mm 5 mps 754 mmHg 51%
    13:00 +34°C° 0 mm 5 mps 753 mmHg 53%
    14:00 +34°C° 0 mm 5 mps 752 mmHg 54%
    15:00 +33°C° 0 mm 6 mps 751 mmHg 56%
    16:00 +32°C° 0 mm 5 mps 752 mmHg 64%
    17:00 +29°C° 0 mm 5 mps 752 mmHg 72%
    18:00 +27°C° 0 mm 5 mps 752 mmHg 79%
    19:00 +27°C° 0 mm 5 mps 752 mmHg 81%
    20:00 +27°C° 0 mm 5 mps 753 mmHg 83%
    21:00 +27°C° 0 mm 5 mps 753 mmHg 85%
    22:00 +27°C° 0 mm 4 mps 753 mmHg 85%
    23:00 +27°C° 0 mm 4 mps 752 mmHg 85%

    16 November, Saturday

    Time Temperature Precipitation Wind Pressure Humidity
    00:00 +27°C° 0 mm 4 mps 752 mmHg 85%
    01:00 +27°C° 0 mm 4 mps 752 mmHg 83%
    02:00 +27°C° 0 mm 4 mps 752 mmHg 81%
    03:00 +27°C° 0 mm 4 mps 751 mmHg 79%
    04:00 +28°C° 0 mm 4 mps 752 mmHg 77%
    05:00 +28°C° 0 mm 4 mps 752 mmHg 74%
    06:00 +28°C° 0 mm 4 mps 753 mmHg 72%
    07:00 +29°C° 0 mm 5 mps 753 mmHg 68%
    08:00 +30°C° 0 mm 5 mps 754 mmHg 64%
    09:00 +32°C° 0 mm 5 mps 754 mmHg 60%
    10:00 +33°C° 0 mm 5 mps 754 mmHg 57%
    11:00 +34°C° 0 mm 5 mps 753 mmHg 54%
    12:00 +35°C° 0 mm 5 mps 753 mmHg 51%
    13:00 +34°C° 0 mm 5 mps 752 mmHg 53%
    14:00 +34°C° 0 mm 5 mps 751 mmHg 54%
    15:00 +33°C° 0 mm 5 mps 751 mmHg 56%
    16:00 +32°C° 0 mm 5 mps 751 mmHg 63%
    17:00 +29°C° 0 mm 4 mps 751 mmHg 71%
    18:00 +28°C° 0 mm 4 mps 751 mmHg 78%
    19:00 +27°C° 0 mm 4 mps 752 mmHg 80%
    20:00 +27°C° 0 mm 4 mps 752 mmHg 82%
    21:00 +27°C° 0 mm 4 mps 753 mmHg 84%
    22:00 +27°C° 0 mm 4 mps 752 mmHg 84%
    23:00 +27°C° 0 mm 4 mps 752 mmHg 83%

    17 November, Sunday

    Time Temperature Precipitation Wind Pressure Humidity
    00:00 +27°C° 0 mm 4 mps 752 mmHg 82%
    01:00 +27°C° 0 mm 4 mps 752 mmHg 82%
    02:00 +27°C° 0 mm 4 mps 751 mmHg 82%
    03:00 +27°C° 0 mm 3 mps 751 mmHg 82%
    04:00 +27°C° 0 mm 3 mps 752 mmHg 80%
    05:00 +28°C° 0 mm 3 mps 752 mmHg 77%
    06:00 +28°C° 0 mm 3 mps 753 mmHg 75%
    07:00 +29°C° 0 mm 4 mps 753 mmHg 70%
    08:00 +30°C° 0 mm 4 mps 754 mmHg 65%
    09:00 +32°C° 0 mm 5 mps 754 mmHg 60%
    10:00 +33°C° 0 mm 5 mps 754 mmHg 56%
    11:00 +34°C° 0 mm 5 mps 753 mmHg 53%
    12:00 +35°C° 0 mm 5 mps 753 mmHg 50%
    13:00 +34°C° 0 mm 5 mps 752 mmHg 52%
    14:00 +34°C° 0 mm 5 mps 752 mmHg 54%
    15:00 +33°C° 0 mm 5 mps 751 mmHg 57%
    16:00 +30°C° 0 mm 5 mps 751 mmHg 65%
    17:00 +29°C° 0 mm 4 mps 751 mmHg 72%
    18:00 +27°C° 0 mm 3 mps 752 mmHg 80%
    19:00 +27°C° 0 mm 4 mps 752 mmHg 82%
    20:00 +27°C° 0 mm 4 mps 753 mmHg 83%
    21:00 +27°C° 0 mm 4 mps 753 mmHg 84%
    22:00 +27°C° 0 mm 4 mps 753 mmHg 84%
    23:00 +27°C° 0 mm 4 mps 753 mmHg 84%
    Show more